Retour au catalogue

COSMOS 839 DEB

ActifUNKNOWN
NORAD 10439·DEBRIS·🇷🇺 Russia

Lancé Jul 8, 1976 depuis Plesetsk Cosmodrome

Loading…

Prochains Passages (prochaines 24 heures)

TLE

FraisSource: Space-Track

Époque: Sep 14, 2026, 10:12 UTC

1 10439U 76067Q   26257.42507128 -.00000047  00000-0  30949-4 0  9995
2 10439  65.7857 225.7358 0666706 189.9134 259.4618 12.24958222243882

Suivez COSMOS 839 DEB en temps réel avec AllMySat

Download on the App Store